Weather History for Delaware, OH

Change the Weather History Date:

Monday, January 21, 2013

  Actual Average Record
Temperature  
Mean Temperature 16 °F -  
Max Temperature 23 °F 33 °F 60 °F (1974)
Min Temperature 8 °F 16 °F -22 °F (1984)
Degree Days  
Heating Degree Days 48    
Moisture  
Dew Point 9 °F    
Average Humidity 70    
Maximum Humidity 80    
Minimum Humidity 46    
Precipitation  
Precipitation 0.00 in - - ()
Sea Level Pressure  
Sea Level Pressure 30.08 in    
Wind  
Wind Speed 9 mph (WNW)    
Max Wind Speed 28 mph    
Max Gust Speed 34 mph    
Visibility 8 miles    
Events Snow    
Averages and records for this station are not official NWS values.
T = Trace of Precipitation, MM = Missing Value Source: NWS Daily Summary

Daily Weather History Graph

Daily Weather History Graph

Search for Another Location

Airport:

Trip Planner

Search our weather history database for the weather conditions in past years. The results will help you decide how hot, cold, wet, or windy it might be!

Date:

Astronomy

Jan. 21, 2013 Rise Set
Actual Time 7:49 AM EST 5:38 PM EST
Civil Twilight 7:20 AM EST 6:07 PM EST
Nautical Twilight 6:47 AM EST 6:40 PM EST
Astronomical Twilight 6:15 AM EST 7:13 PM EST
Moon 1:17 PM EST (1/21) 3:17 AM EST (1/21)
Length of Visible Light 10h 47m
Length of Day
9h 48m
Waxing Gibbous, 75% of the Moon is Illuminated
Jan 21
Waxing Gibbous
Jan 26
Full
Feb 3
Last Quarter
Feb 10
New
Feb 17
First Quarter

Hourly Weather History & Observations

Time (EST) Temp. Windchill Dew Point Humidity Pressure Visibility Wind Dir Wind Speed Gust Speed Precip Events Conditions
12:03 AM 23.0 °F 15.8 °F 14.0 °F 68% 30.15 in 10.0 mi WNW 5.8 mph - N/A   Overcast
12:23 AM 23.0 °F 14.7 °F 14.0 °F 68% 30.14 in 10.0 mi NW 6.9 mph - N/A   Overcast
12:42 AM 23.0 °F 15.8 °F 14.0 °F 68% 30.13 in 10.0 mi NW 5.8 mph - N/A   Overcast
1:03 AM 21.2 °F 13.6 °F 15.8 °F 80% 30.12 in 10.0 mi North 5.8 mph - N/A   Overcast
1:23 AM 21.2 °F 13.6 °F 15.8 °F 80% 30.12 in 10.0 mi NNW 5.8 mph - N/A   Overcast
1:42 AM 21.2 °F 14.9 °F 15.8 °F 80% 30.12 in 10.0 mi NW 4.6 mph - N/A   Overcast
2:03 AM 21.2 °F 13.6 °F 14.0 °F 74% 30.12 in 10.0 mi NNW 5.8 mph - N/A Snow Light Snow
2:23 AM 21.2 °F 14.9 °F 14.0 °F 74% 30.11 in 10.0 mi NNW 4.6 mph - N/A Snow Light Snow
2:43 AM 21.2 °F 14.9 °F 14.0 °F 74% 30.11 in 10.0 mi NNW 4.6 mph - N/A   Overcast
3:23 AM 21.2 °F 14.9 °F 14.0 °F 74% 30.10 in 10.0 mi NNW 4.6 mph - N/A   Overcast
3:43 AM 21.2 °F 14.9 °F 14.0 °F 74% 30.09 in 10.0 mi NNW 4.6 mph - N/A   Overcast
4:03 AM 21.2 °F 16.4 °F 14.0 °F 74% 30.09 in 10.0 mi NNW 3.5 mph - N/A   Overcast
4:23 AM 21.2 °F 16.4 °F 14.0 °F 74% 30.08 in 10.0 mi NNW 3.5 mph - N/A   Overcast
4:43 AM 21.2 °F 16.4 °F 14.0 °F 74% 30.08 in 10.0 mi NNW 3.5 mph - N/A   Overcast
5:03 AM 19.4 °F - 14.0 °F 80% 30.08 in 10.0 mi Calm Calm - N/A Snow Light Snow
5:23 AM 19.4 °F 14.3 °F 14.0 °F 80% 30.07 in 10.0 mi NW 3.5 mph - N/A Snow Light Snow
5:43 AM 19.4 °F 14.3 °F 14.0 °F 80% 30.07 in 7.0 mi NW 3.5 mph - N/A Snow Light Snow
6:03 AM 19.4 °F - 14.0 °F 80% 30.06 in 5.0 mi Calm Calm - N/A Snow Light Snow
6:23 AM 19.4 °F - 14.0 °F 80% 30.06 in 7.0 mi Calm Calm - N/A Snow Light Snow
6:43 AM 19.4 °F - 14.0 °F 80% 30.06 in 7.0 mi Calm Calm - N/A Snow Light Snow
7:03 AM 19.4 °F - 14.0 °F 80% 30.05 in 7.0 mi Calm Calm - N/A Snow Light Snow
7:23 AM 19.4 °F - 14.0 °F 80% 30.04 in 10.0 mi Calm Calm - N/A Snow Light Snow
7:43 AM 19.4 °F - 14.0 °F 80% 30.04 in 7.0 mi Calm Calm - N/A Snow Light Snow
8:03 AM 19.4 °F 14.3 °F 14.0 °F 80% 30.04 in 5.0 mi WSW 3.5 mph - N/A Snow Light Snow
8:23 AM 19.4 °F 14.3 °F 14.0 °F 80% 30.04 in 7.0 mi SW 3.5 mph - N/A Snow Light Snow
8:43 AM 21.2 °F 14.9 °F 15.8 °F 80% 30.04 in 4.0 mi WSW 4.6 mph - N/A Snow Light Snow
9:03 AM 21.2 °F 9.5 °F 14.0 °F 74% 30.04 in 7.0 mi West 11.5 mph - N/A Snow Light Snow
9:23 AM 21.2 °F 8.9 °F 12.2 °F 68% 30.04 in 10.0 mi West 12.7 mph 18.4 mph N/A   Overcast
9:43 AM 21.2 °F 8.3 °F 14.0 °F 74% 30.04 in 3.0 mi WNW 13.8 mph 20.7 mph N/A Snow Light Snow
10:03 AM 21.2 °F 9.5 °F 14.0 °F 74% 30.04 in 7.0 mi West 11.5 mph 16.1 mph N/A   Overcast
10:22 AM 19.4 °F 7.9 °F 14.0 °F 80% 30.04 in 4.0 mi WNW 10.4 mph - N/A Snow Light Snow
10:43 AM 21.2 °F 9.5 °F 12.2 °F 68% 30.04 in 10.0 mi West 11.5 mph - N/A   Overcast
11:03 AM 21.2 °F 8.9 °F 14.0 °F 74% 30.04 in 10.0 mi West 12.7 mph 17.3 mph N/A Snow Light Snow
11:22 AM 21.2 °F 8.9 °F 14.0 °F 74% 30.04 in 4.0 mi West 12.7 mph - N/A Snow Light Snow
11:43 AM 21.2 °F 6.8 °F 12.2 °F 68% 30.03 in 10.0 mi WNW 17.3 mph 24.2 mph N/A Snow Light Snow
12:03 PM 19.4 °F 5.0 °F 14.0 °F 80% 30.03 in 2.5 mi WNW 16.1 mph 21.9 mph N/A Snow Light Snow
12:23 PM 19.4 °F 4.5 °F 12.2 °F 74% 30.02 in 5.0 mi West 17.3 mph 23.0 mph N/A Snow Light Snow
12:43 PM 21.2 °F 5.6 °F 14.0 °F 74% 30.02 in 2.0 mi West 20.7 mph 25.3 mph N/A Snow Light Snow
1:03 PM 21.2 °F 6.8 °F 12.2 °F 68% 30.02 in 10.0 mi West 17.3 mph 27.6 mph N/A   Mostly Cloudy
1:23 PM 19.4 °F 4.5 °F 10.4 °F 68% 30.02 in 5.0 mi West 17.3 mph 25.3 mph N/A   Haze
1:43 PM 19.4 °F 1.1 °F 10.4 °F 68% 30.02 in 7.0 mi West 27.6 mph 33.4 mph N/A   Overcast
2:03 PM 21.2 °F 7.8 °F 8.6 °F 58% 30.01 in 10.0 mi West 15.0 mph 31.1 mph N/A   Mostly Cloudy
2:23 PM 21.2 °F 3.9 °F 5.0 °F 50% 30.02 in 10.0 mi WNW 26.5 mph 34.5 mph N/A   Mostly Cloudy
2:43 PM 19.4 °F 2.8 °F 5.0 °F 54% 30.02 in 10.0 mi WNW 21.9 mph 31.1 mph N/A   Overcast
3:03 PM 19.4 °F 2.8 °F 5.0 °F 54% 30.03 in 10.0 mi West 21.9 mph 28.8 mph N/A   Overcast
3:23 PM 17.6 °F -1.0 °F 5.0 °F 58% 30.04 in 10.0 mi WNW 26.5 mph 33.4 mph N/A   Overcast
3:43 PM 19.4 °F 1.8 °F 3.2 °F 49% 30.04 in 10.0 mi West 25.3 mph 31.1 mph N/A   Mostly Cloudy
4:03 PM 19.4 °F 3.6 °F 1.4 °F 46% 30.05 in 10.0 mi West 19.6 mph 26.5 mph N/A   Mostly Cloudy
4:23 PM 19.4 °F 3.2 °F 1.4 °F 46% 30.05 in 7.0 mi WNW 20.7 mph 31.1 mph N/A   Mostly Cloudy
4:43 PM 17.6 °F 1.3 °F 3.2 °F 53% 30.06 in 10.0 mi West 19.6 mph 28.8 mph N/A   Overcast
5:02 PM 17.6 °F 2.2 °F 6.8 °F 63% 30.07 in 5.0 mi West 17.3 mph 25.3 mph N/A Snow Light Snow
5:23 PM 15.8 °F 0.3 °F 10.4 °F 79% 30.07 in 1.0 mi West 16.1 mph 23.0 mph N/A Snow Light Snow
5:43 PM 15.8 °F 2.7 °F 8.6 °F 73% 30.07 in 5.0 mi West 11.5 mph 20.7 mph N/A Snow Light Snow
6:02 PM 14.0 °F -4.3 °F 8.6 °F 79% 30.08 in 5.0 mi West 21.9 mph 27.6 mph N/A Snow Light Snow
6:23 PM 14.0 °F -0.2 °F 5.0 °F 67% 30.09 in 10.0 mi West 12.7 mph 23.0 mph N/A   Overcast
6:43 PM 14.0 °F -2.5 °F 8.6 °F 79% 30.10 in 2.5 mi West 17.3 mph 24.2 mph N/A Snow Light Snow
7:02 PM 12.2 °F -4.3 °F 5.0 °F 73% 30.11 in 10.0 mi West 16.1 mph 24.2 mph N/A   Mostly Cloudy
7:23 PM 12.2 °F -3.7 °F 1.4 °F 62% 30.11 in 10.0 mi West 15.0 mph 25.3 mph N/A   Clear
7:43 PM 12.2 °F -3.7 °F -0.4 °F 57% 30.12 in 10.0 mi West 15.0 mph 26.5 mph N/A   Clear
8:03 PM 12.2 °F -2.5 °F -0.4 °F 57% 30.12 in 10.0 mi West 12.7 mph 19.6 mph N/A   Clear
8:23 PM 10.4 °F -4.1 °F -0.4 °F 62% 30.12 in 10.0 mi West 11.5 mph 23.0 mph N/A   Scattered Clouds
8:43 PM 10.4 °F -5.4 °F -0.4 °F 62% 30.12 in 10.0 mi West 13.8 mph 21.9 mph N/A   Mostly Cloudy
9:03 PM 10.4 °F -6.0 °F -0.4 °F 62% 30.12 in 10.0 mi West 15.0 mph 19.6 mph N/A   Scattered Clouds
9:23 PM 10.4 °F -5.4 °F -0.4 °F 62% 30.13 in 10.0 mi West 13.8 mph 23.0 mph N/A   Clear
9:43 PM 10.4 °F -6.0 °F -0.4 °F 62% 30.14 in 10.0 mi West 15.0 mph 21.9 mph N/A   Scattered Clouds
10:03 PM 10.4 °F -6.0 °F -0.4 °F 62% 30.14 in 10.0 mi West 15.0 mph - N/A   Scattered Clouds
10:23 PM 10.4 °F -6.6 °F 1.4 °F 67% 30.15 in 10.0 mi West 16.1 mph 21.9 mph N/A   Scattered Clouds
10:43 PM 10.4 °F -5.4 °F 1.4 °F 67% 30.15 in 10.0 mi West 13.8 mph 24.2 mph N/A   Mostly Cloudy
11:03 PM 10.4 °F -4.1 °F 3.2 °F 73% 30.15 in 10.0 mi West 11.5 mph - N/A   Mostly Cloudy
11:23 PM 10.4 °F -5.4 °F 1.4 °F 67% 30.16 in 10.0 mi West 13.8 mph 19.6 mph N/A   Mostly Cloudy
11:43 PM 8.6 °F -10.0 °F -2.2 °F 62% 30.16 in 10.0 mi West 18.4 mph 26.5 mph N/A   Scattered Clouds